Regional Weather Roundup
Issued by NWS Charleston, SC

Current Version | Previous Version | Graphics & Text | Print | Product List | Glossary On
Versions: 1 2 3 4 5 6 7 8 9 10 11 12 13 14 15 16 17 18 19 20 21 22 23 24 25 26 27 28 29 30 31 32 33 34 35 36 37 38 39 40 41 42 43 44 45 46 47 48 49 50
000
ASUS42 KCHS 150312
RWRCHS

REGIONAL WEATHER ROUNDUP
NATIONAL WEATHER SERVICE CHARLESTON SC
1000 PM EST THU DEC 14 2017

NOTE: "FAIR" INDICATES FEW OR NO CLOUDS BELOW 12,000 FEET WITH NO
SIGNIFICANT WEATHER AND/OR OBSTRUCTIONS TO VISIBILITY.

NOT ALL STATIONS ARE QUALITY CONTROLLED. USE DATA WITH CAUTION...
ESPECIALLY DEWPOINT OBSERVATIONS.

SCZ027-030-031-034>040-042>050-150400-
...SOUTHEAST SOUTH CAROLINA...

CITY           SKY/WX    TMP DP  RH WIND       PRES   REMARKS
N CHARLESTON   MOCLDY    45  43  93 S5        30.00R
WATERFRONT PRK   N/A     51  46  83 VRB3      29.85S
JOHNS ISLAND   FAIR      48  45  87 S5        30.00S
PINOPOLIS        N/A     50  43  76 VRB3      29.91R
MONCKS CORNER  FAIR      45  39  81 CALM      29.99S
SUMMERVILLE    FAIR      43  41  93 CALM      30.01R
BEAUFORT MCAS  CLOUDY    48  43  82 SW5       30.01R
BEAUFORT ARPT  FAIR      50  43  76 S5        30.01S
HILTON HEAD IS CLOUDY    50  43  76 S6        30.02S
WALTERBORO     PTCLDY    43  37  81 CALM      30.01R
ALLENDALE      CLOUDY    46  39  76 CALM      30.00R

...SOUTHERN MIDLANDS AND PEE DEE...

CITY           SKY/WX    TMP DP  RH WIND       PRES   REMARKS
GEORGETOWN     FAIR      43  41  93 CALM      30.01R
KINGSTREE      FAIR      39  37  93 CALM      29.99R
ORANGEBURG     MOCLDY    43  37  79 CALM      29.99R
BARNWELL         N/A     48  37  66 CALM      29.99R
AIKEN          FAIR      45  36  70 SW5       30.01R
MANNING        FAIR      41  27  56 MISG      29.99R
COLUMBIA       CLOUDY    47  37  68 W3        29.98R
SUMTER         CLOUDY    45  35  68 SW3       29.96R
FLORENCE       CLOUDY    41  35  79 CALM      29.98S
MYRTLE BEACH   CLOUDY    46  41  82 CALM      30.01R
N MYRTLE BEACH CLOUDY    43  41  93 CALM      29.99R

$$

GAZ063-065-086>088-099>101-113>116-118-119-134>141-150-150400-
...SOUTHEAST GEORGIA...

CITY           SKY/WX    TMP DP  RH WIND       PRES   REMARKS
SAVANNAH ARPT  PTCLDY    51  38  60 S7        30.02S
HUNTER AAF     MOCLDY    50  39  66 SW7       29.99S
FORT STEWART   PTCLDY    43  39  86 CALM      30.01R
STATESBORO     CLOUDY    47  39  75 CALM      30.02R
SYLVANIA       CLOUDY    46  45  97 CALM      30.02R
CLAXTON        FAIR      46  43  89 CALM      30.02R

...CSRA...CENTRAL AND FAR SOUTHEAST GEORGIA...

CITY           SKY/WX    TMP DP  RH WIND       PRES   REMARKS
THOMSON        CLOUDY    42  37  81 NW3       30.03S
AUGUSTA-BUSH   CLOUDY    43  39  86 CALM      29.99R
AUGUSTA-DANIEL MOCLDY    52  36  54 VRB3      29.99R
SWAINSBORO     FAIR      45  45 100 CALM      30.02R
VIDALIA        PTCLDY    50  41  71 SW3       30.02R
EASTMAN        FAIR      45  34  66 CALM      30.05R
HAZLEHURST     FAIR      47  36  64 SW3       30.02R
ALMA           CLEAR     42  39  89 CALM      30.03R
WAYCROSS       CLOUDY    43  38  83 CALM      30.04R
JESUP          FAIR      43  37  81 CALM      30.04R
BAXLEY         FAIR      41  41 100 CALM      30.03R
BRUNSWICK      PTCLDY    45  39  81 CALM      30.04F
SAINT SIMONS   MOCLDY    50  43  77 SW5       30.04R

$$

SCZ027-028-034-036>038-045-046-048>050-GAZ119-141-150400-
...LAKE AND SUPPLEMENTAL COASTAL OBSERVATIONS...

STATION/POSITION TIME  TEMP    WIND        PRES    WAVE   SWELL
                       AIR SEA DIR/SP/G            HT/PER HT/PER/DIR
                 (UTC) (F)     (DEG/KT/KT) (MB)    (FT/S) (FT/S/D)
WINYAH BAY       0145   47        CALM     1015.0
LAKE MURRAY      0220   53     250/  9/ 13 1013.9
ACE BASIN NERRS  0145   47        CALM     1016.0
FORT PULASKI     0248   51 54  210/  5/  7 1016.7R
SAPELO ISLAND    0200   50     190/  4     1017.0

$$

ANZ835-935-AMZ111-154-330-350-352-354-370-450-454-472-150400-
...C-MAN AND BUOY OBSERVATIONS...

STATION/POSITION TIME  TEMP    WIND        PRES    WAVE   SWELL
                       AIR SEA DIR/SP/G            HT/PER HT/PER/DIR
                 (UTC) (F)     (DEG/KT/KT) (MB)    (FT/S) (FT/S/D)
BUOY 41004       0250      71  250/ 16/ 19 1015.7S   3/ 5
BUOY 41008       0250   59 59  230/  8/ 10 1016.9R   1/ 4   2/130/ 5
FOLLY BEACH CMAN 0200   53     230/  6/  8 1016.1R
CAPERS NEARSHORE 0208   51 55  240/ 10/ 14 1015.4R
FRIPP NEARSHORE  0208   53 55  200/  6/ 12 1011.7F


STATION/POSITION TIME  TEMP    WIND        PRES    WAVE   SWELL
                       AIR SEA DIR/SP/G            HT/PER HT/PER/DIR
                 (UTC) (F)     (DEG/KT/KT) (MB)    (FT/S) (FT/S/D)
5E ST. MARYS GA  0230      62                N/A     1/11
FRYING PAN BUOY  0250   60 66  270/ 14/ 16 1015.4R   5/ 7
BUOY 41025       0250   57 74   20/  6/ 14 1016.0R   5/ 8   5/200/ 8
CAPE LOOKOUT NC  0200           20/  5/  5 1015.6F
BUOY 41002       0150   70 74  260/ 21/ 25 1015.8    8/ 8   3/100/19
BUOY 41010       NOT AVBL
ST AUGUSTINE FL  0300   62 63  210/  5/  6 1018.1R


$$



USA.gov is the U.S. government's official web portal to all federal, state and local government web resources and services.